Hourly Weather Rusanovo

Today, 21 April, Wednesday

Time Temperature Precipitation Wind Pressure Humidity
00:00 +4°C° 0 mm 1 mps 744 mmHg 91%
01:00 +4°C° 0 mm 1 mps 743 mmHg 93%
02:00 +3°C° 0 mm 1 mps 743 mmHg 95%
03:00 +3°C° 0 mm 1 mps 742 mmHg 94%
04:00 +3°C° 0 mm 1 mps 742 mmHg 93%
05:00 +2°C° 0 mm 0 mps 741 mmHg 92%
06:00 +4°C° 0 mm 1 mps 741 mmHg 91%
07:00 +5°C° 0 mm 1 mps 740 mmHg 90%
08:00 +4°C° 0 mm 2 mps 740 mmHg 88%
09:00 +5°C° 0.1 mm 2 mps 740 mmHg 84%
10:00 +6°C° 0.1 mm 2 mps 740 mmHg 81%
11:00 +7°C° 0.1 mm 2 mps 740 mmHg 77%
12:00 +7°C° 0.1 mm 2 mps 740 mmHg 74%
13:00 +8°C° 0.1 mm 3 mps 740 mmHg 71%
14:00 +8°C° 0.1 mm 3 mps 740 mmHg 69%
15:00 +9°C° 0.1 mm 3 mps 740 mmHg 68%
16:00 +9°C° 0.1 mm 2 mps 740 mmHg 67%
17:00 +9°C° 0.1 mm 2 mps 740 mmHg 66%
18:00 +8°C° 0 mm 2 mps 740 mmHg 72%
19:00 +6°C° 0 mm 2 mps 740 mmHg 79%
20:00 +5°C° 0 mm 2 mps 740 mmHg 85%
21:00 +5°C° 0 mm 2 mps 740 mmHg 86%
22:00 +5°C° 0 mm 2 mps 740 mmHg 86%
23:00 +5°C° 0 mm 2 mps 740 mmHg 86%

Tomorrow, 22 April, Thursday

Time Temperature Precipitation Wind Pressure Humidity
00:00 +4°C° 0 mm 2 mps 741 mmHg 88%
01:00 +3°C° 0 mm 3 mps 741 mmHg 89%
02:00 +3°C° 0 mm 3 mps 741 mmHg 91%
03:00 +3°C° 0 mm 3 mps 741 mmHg 93%
04:00 +4°C° 0 mm 2 mps 741 mmHg 95%
05:00 +3°C° 0 mm 2 mps 741 mmHg 97%
06:00 +5°C° 0 mm 2 mps 741 mmHg 88%
07:00 +7°C° 0 mm 3 mps 742 mmHg 80%
08:00 +9°C° 0 mm 3 mps 742 mmHg 72%
09:00 +10°C° 0 mm 3 mps 742 mmHg 64%
10:00 +12°C° 0 mm 3 mps 742 mmHg 55%
11:00 +13°C° 0 mm 3 mps 742 mmHg 47%
12:00 +14°C° 0 mm 3 mps 742 mmHg 46%
13:00 +14°C° 0 mm 4 mps 742 mmHg 46%
14:00 +15°C° 0 mm 4 mps 741 mmHg 46%
15:00 +14°C° 0.3 mm 4 mps 741 mmHg 52%
16:00 +13°C° 0.3 mm 3 mps 741 mmHg 58%
17:00 +13°C° 0.3 mm 3 mps 741 mmHg 64%
18:00 +11°C° 0.3 mm 3 mps 741 mmHg 72%
19:00 +10°C° 0.3 mm 3 mps 741 mmHg 80%
20:00 +8°C° 0.3 mm 2 mps 741 mmHg 88%
21:00 +8°C° 0.8 mm 2 mps 741 mmHg 90%
22:00 +8°C° 0.8 mm 2 mps 741 mmHg 91%
23:00 +8°C° 0.8 mm 1 mps 741 mmHg 92%

Day after tomorrow, 23 April, Friday

Time Temperature Precipitation Wind Pressure Humidity
00:00 +7°C° 0.2 mm 2 mps 741 mmHg 90%
01:00 +7°C° 0.2 mm 2 mps 741 mmHg 88%
02:00 +6°C° 0.2 mm 2 mps 741 mmHg 86%
03:00 +5°C° 0 mm 3 mps 742 mmHg 85%
04:00 +4°C° 0 mm 3 mps 742 mmHg 83%
05:00 +3°C° 0 mm 3 mps 742 mmHg 82%
06:00 +4°C° 0 mm 4 mps 742 mmHg 79%
07:00 +4°C° 0 mm 4 mps 743 mmHg 77%
08:00 +4°C° 0 mm 4 mps 743 mmHg 75%
09:00 +5°C° 0 mm 4 mps 743 mmHg 69%
10:00 +6°C° 0 mm 4 mps 743 mmHg 62%
11:00 +6°C° 0 mm 5 mps 743 mmHg 56%
12:00 +6°C° 0 mm 4 mps 743 mmHg 55%
13:00 +7°C° 0 mm 4 mps 744 mmHg 54%
14:00 +7°C° 0 mm 4 mps 744 mmHg 53%
15:00 +6°C° 0 mm 4 mps 744 mmHg 54%
16:00 +7°C° 0 mm 3 mps 744 mmHg 56%
17:00 +7°C° 0 mm 3 mps 744 mmHg 58%
18:00 +5°C° 0 mm 3 mps 744 mmHg 63%
19:00 +5°C° 0 mm 2 mps 744 mmHg 68%
20:00 +4°C° 0 mm 1 mps 744 mmHg 74%
21:00 +4°C° 0 mm 1 mps 743 mmHg 76%
22:00 +4°C° 0 mm 1 mps 743 mmHg 78%
23:00 +3°C° 0 mm 1 mps 743 mmHg 81%

24 April, Saturday

Time Temperature Precipitation Wind Pressure Humidity
00:00 +3°C° 0 mm 1 mps 743 mmHg 83%
01:00 +2°C° 0 mm 1 mps 743 mmHg 84%
02:00 +2°C° 0 mm 1 mps 743 mmHg 86%
03:00 +1°C° 0 mm 1 mps 742 mmHg 87%
04:00 +1°C° 0 mm 1 mps 742 mmHg 87%
05:00 +1°C° 0 mm 1 mps 742 mmHg 88%
06:00 +2°C° 0 mm 1 mps 742 mmHg 81%
07:00 +3°C° 0 mm 2 mps 742 mmHg 74%
08:00 +4°C° 0 mm 2 mps 742 mmHg 67%
09:00 +5°C° 0.2 mm 2 mps 742 mmHg 61%
10:00 +5°C° 0.2 mm 3 mps 741 mmHg 55%
11:00 +5°C° 0.2 mm 3 mps 741 mmHg 50%
12:00 +7°C° 0.1 mm 3 mps 741 mmHg 49%
13:00 +7°C° 0.1 mm 3 mps 741 mmHg 48%
14:00 +7°C° 0.1 mm 3 mps 741 mmHg 47%
15:00 +7°C° 0.2 mm 3 mps 741 mmHg 50%
16:00 +5°C° 0.2 mm 3 mps 741 mmHg 54%
17:00 +5°C° 0.2 mm 3 mps 741 mmHg 57%
18:00 +4°C° 0 mm 3 mps 741 mmHg 64%
19:00 +3°C° 0 mm 3 mps 741 mmHg 72%
20:00 +2°C° 0 mm 3 mps 741 mmHg 80%
21:00 +1°C° 0 mm 3 mps 741 mmHg 83%
22:00 +1°C° 0 mm 3 mps 741 mmHg 86%
23:00 0°C° 0 mm 3 mps 741 mmHg 88%

25 April, Sunday

Time Temperature Precipitation Wind Pressure Humidity
00:00 0°C° 0 mm 3 mps 741 mmHg 91%
01:00 -1°C° 0 mm 3 mps 741 mmHg 93%
02:00 -1°C° 0 mm 3 mps 741 mmHg 95%
03:00 -1°C° 0 mm 3 mps 740 mmHg 94%
04:00 -1°C° 0 mm 3 mps 740 mmHg 92%
05:00 -1°C° 0 mm 3 mps 740 mmHg 91%
06:00 -1°C° 0.1 mm 3 mps 740 mmHg 89%
07:00 0°C° 0.1 mm 3 mps 740 mmHg 86%
08:00 +1°C° 0.1 mm 3 mps 739 mmHg 84%
09:00 +1°C° 0.1 mm 3 mps 739 mmHg 81%
10:00 +2°C° 0.1 mm 3 mps 740 mmHg 77%
11:00 +2°C° 0.1 mm 3 mps 740 mmHg 73%
12:00 +3°C° 0.4 mm 4 mps 740 mmHg 76%
13:00 +3°C° 0.4 mm 4 mps 740 mmHg 79%
14:00 +3°C° 0.4 mm 4 mps 740 mmHg 82%
15:00 +3°C° 0.3 mm 4 mps 740 mmHg 80%
16:00 +3°C° 0.3 mm 4 mps 740 mmHg 78%
17:00 +3°C° 0.3 mm 4 mps 740 mmHg 76%
18:00 +2°C° 0.1 mm 3 mps 740 mmHg 81%
19:00 +1°C° 0.1 mm 3 mps 740 mmHg 85%
20:00 +1°C° 0.1 mm 2 mps 740 mmHg 89%
21:00 +1°C° 0 mm 2 mps 740 mmHg 91%
22:00 0°C° 0 mm 3 mps 740 mmHg 93%
23:00 -1°C° 0 mm 3 mps 740 mmHg 95%

26 April, Monday

Time Temperature Precipitation Wind Pressure Humidity
00:00 0°C° 0 mm 3 mps 739 mmHg 95%
01:00 0°C° 0 mm 3 mps 739 mmHg 94%
02:00 0°C° 0 mm 3 mps 739 mmHg 94%
03:00 0°C° 0.2 mm 3 mps 739 mmHg 95%
04:00 0°C° 0.2 mm 3 mps 739 mmHg 96%
05:00 0°C° 0.2 mm 3 mps 739 mmHg 97%
06:00 -1°C° 0.5 mm 4 mps 739 mmHg 97%
07:00 -1°C° 0.5 mm 4 mps 739 mmHg 96%
08:00 -1°C° 0.5 mm 4 mps 739 mmHg 96%
09:00 -1°C° 0.7 mm 4 mps 739 mmHg 96%
10:00 -1°C° 0.7 mm 4 mps 739 mmHg 97%
11:00 0°C° 0.7 mm 3 mps 739 mmHg 97%
12:00 0°C° 0.1 mm 4 mps 739 mmHg 97%
13:00 +1°C° 0.1 mm 4 mps 739 mmHg 97%
14:00 +1°C° 0.1 mm 4 mps 740 mmHg 96%
15:00 +1°C° 0 mm 4 mps 740 mmHg 97%
16:00 +1°C° 0 mm 4 mps 740 mmHg 97%
17:00 +1°C° 0 mm 4 mps 741 mmHg 97%
18:00 0°C° 0.1 mm 4 mps 741 mmHg 97%
19:00 +1°C° 0.1 mm 3 mps 741 mmHg 97%
20:00 +1°C° 0.1 mm 3 mps 741 mmHg 97%
21:00 +1°C° 0.1 mm 3 mps 742 mmHg 97%
22:00 0°C° 0.1 mm 3 mps 742 mmHg 97%
23:00 0°C° 0.1 mm 3 mps 742 mmHg 97%
Show more